Regional Weather Roundup
Issued by NWS Cleveland, OH

Home | Current Version | Previous Version | Graphics & Text | Print | Product List | Glossary On
Versions: 1 2 3 4 5 6 7 8 9 10 11 12 13 14 15 16 17 18 19 20 21 22 23 24 25 26 27 28 29 30 31 32 33 34 35 36 37 38 39 40 41 42 43 44 45 46 47 48 49 50
000
ASUS41 KCLE 210700
RWRCLE
OHIO REGIONAL WEATHER ROUNDUP
NATIONAL WEATHER SERVICE WILMINGTON, OH
300 AM EDT SAT OCT 21 2017

NOTE: "FAIR" INDICATES FEW OR NO CLOUDS BELOW 12,000 FEET WITH NO
SIGNIFICANT WEATHER AND/OR OBSTRUCTIONS TO VISIBILITY.

OHZ001>008-015>018-024>027-034-035-043-044-210800-
   NORTHWEST OHIO

CITY           SKY/WX    TMP DP  RH WIND       PRES   REMARKS
DEFIANCE       FAIR      51  47  86 CALM      30.16F
FINDLAY        FAIR      54  45  71 SE6       30.18S
TOLEDO EXPRESS FAIR      56  50  80 S3        30.17S
TOLEDO EXEC    FAIR      53  45  74 S5        30.18S
LIMA           FAIR      54  50  86 S6        30.18F
$$

OHZ009>014-019>023-028>033-038-089-210800-
   NORTHEAST OHIO

CITY           SKY/WX    TMP DP  RH WIND       PRES   REMARKS
CLE-HOPKINS    FAIR      49  41  74 S5        30.23S
CLE-LAKEFRONT  FAIR      57  40  52 SE5       30.20S
CUY CO. ARPT   NOT AVBL
LORAIN-ELYRIA  FAIR      51  38  60 S6        30.22R
ASHTABULA      FAIR      50  39  66 S7        30.24R
AKRON-CANTON   FAIR      53  39  59 S6        30.23S
WOOSTER        NOT AVBL
MANSFIELD      FAIR      49  40  71 S7        30.22S
YOUNGSTOWN     FAIR      43  39  86 SE5       30.24S
$$

OHZ042-051>053-060>062-070>072-077>081-210800-
  SOUTHWEST OHIO

CITY           SKY/WX    TMP DP  RH WIND       PRES   REMARKS
CINC-COVINGTON MOCLDY    57  53  86 SE3       30.18F
CINC-LUNKEN    FOG       49  49 100 CALM      30.20F VSB 1/2
HAMILTON       FAIR      48  47  96 CALM      30.19F FOG
DAYTON         NOT AVBL
WRIGHT-PAT AFB NOT AVBL
DAYTON GENERAL FAIR      57  50  77 SE7       30.18F
WILMINGTON     FAIR      54  51  90 SE5       30.21S
$$

OHZ036-037-039>041-045>050-054>059-063>069-073>076-082>088-210800-
  CENTRAL AND SOUTHEAST OHIO

CITY           SKY/WX    TMP DP  RH WIND       PRES   REMARKS
COLUMBUS       FAIR      51  44  77 CALM      30.21S
OSU AIRPORT    FAIR      50  44  80 CALM      30.22R
BOLTON FIELD   NOT AVBL
RICKENBACK AFB NOT AVBL
NEWARK         FAIR      42  39  89 CALM      30.23R
MARION         FAIR      49  39  68 S7        30.21F
LANCASTER      FAIR      43  41  93 CALM      30.23R
ZANESVILLE     FAIR      45  41  86 CALM      30.23R
NEW PHILLY     FAIR      44  42  93 SE6       30.24F
$$




USA.gov is the U.S. government's official web portal to all federal, state and local government web resources and services.